星链-5523 (STARLINK-5523 )

导读

STARLINK-5523是美国太空探索技术公司SpaceX星链星座中的一颗卫星,于2023年5月10日发射入轨。星链计划旨在构建全球卫星互联网星座,为全球提供高速宽带服务,这颗卫星承担着星座扩容与信号覆盖优化任务,助力星链完成全球覆盖目标,也推动低轨卫星互联网产业发展。

基本信息
目录编号:
56470
目录名称:
STARLINK-5523
国际标识:
2023-064Y
轨道中心:
EARTH
卫星名称:
星链-5523
卫星全名:
星链-5523 (STARLINK-5523 )
卫星状态:
在轨 (已飞行1132 天)
发射日期:
2023-05-10 UTC
国别 :
美国 (US)
星等 :
--
轨道信息
数据来源 国际轨道数据 AOE轨道数据
星历时间 2026-06-14T22:41:18+0800
13小时前
查看轨道信息
2026-06-14T04:00:00+0800
1天前
查看轨道信息
半长轴 6950.221km 6950.202km
偏心率 0.0003123 0.0002831
轨道倾角 69.999° 69.999°
近地点辐角 268.361° 266.683°
升交点赤经 240.225° 242.188°
平近点角 91.719° 214.413°
近地点 569.913km 570.097km
远地点 574.255km 574.033km
周期 96.108分钟 96.107分钟
每日圈数 14.983212 14.983272
详细信息
固有亮度:
5
最大亮度:
2.5
卫星平台:
Starlink v1.5
覆盖范围:
全球
运营商:
太空探索技术公司
运营商所在国:
美国
制造商(研发单位):
太空探索技术公司
制造商所在国:
美国
使用方式:
暂无
卫星简介
星链(Starlink)计划是由太空探索技术公司(SpaceX)提出的一个巨型低轨卫星互联网星座项目,计划在2019年至2024年间在太空搭建由约1.2万颗卫星组成的“星链”网络,其中1584颗将部署在地球上空550千米处的近地轨道,并从2020年开始工作。该卫星仍在工作。
2D轨道图
3D轨道图
轨道高度分析图
轨道倾角分析图
轨道综合分析图
查看轨道综合分析图